Regional Weather Roundup
Issued by NWS Bismarck, ND

Home | Current Version | Previous Version | Text Only | Print | Product List | Glossary On
Versions: 1 2 3 4 5 6 7 8 9 10 11 12 13 14 15 16 17 18 19 20 21 22 23 24 25 26 27 28 29 30 31 32 33 34 35 36 37 38 39 40 41 42 43 44 45 46 47 48 49 50
000
ASUS43 KBIS 261902
RWRBIS

NWR BROADCAST TEXT
NATIONAL WEATHER SERVICE BISMARCK ND
200 PM CDT MON JUN 26 2017

NOTE: "FAIR" INDICATES FEW OR NO CLOUDS BELOW 12,000 FEET WITH NO
SIGNIFICANT WEATHER AND/OR OBSTRUCTIONS TO VISIBILITY.


CITY           SKY/WX    TMP DP  RH WIND       PRES   REMARKS
WILLISTON      SUNNY     79  44  28 SE14G21   30.10F
MINOT          SUNNY     72  39  30 S6        30.16F
MINOT AFB      SUNNY     71  40  32 S6        30.15F
BISMARCK       SUNNY     73  44  35 SE8       30.19F
DICKINSON      MOSUNNY   74  37  26 S10G21    30.13F
GARRISON         N/A     69  42  37 S8        30.17F
HETTINGER ARPT SUNNY     75  39  27 MISG      30.18F
JAMESTOWN      PTSUNNY   68  39  34 VRB3      30.20F
HAZEN          FAIR      72  41  33 CALM      30.18F
LINTON         FAIR     N/A N/A N/A W5        30.22F
MANDAN         FAIR      68  43  40 CALM      30.20F
STANLEY        FAIR      72  45  37 S9        30.17F
TIOGA          FAIR      70  45  40 S14       30.15F
WATFORD CITY   FAIR      75  46  35 S8G17     30.10F
$$

CITY           SKY/WX    TMP DP  RH WIND       PRES   REMARKS
GRAND FORKS    MOSUNNY   70  39  32 NW13      30.16F
GRAND FORKS AF MOSUNNY   71  39  31 NW6       30.17F
DEVILS LAKE    SUNNY     66  38  35 VRB6      30.21F
FARGO          MOSUNNY   71  38  29 NW8       30.18F
CAVALIER       FAIR      72  39  30 NW13      30.15F
GRAFTON        FAIR      72  39  30 W9        30.18F
GWINNER        CLOUDY    68  39  34 W6        30.21F
LANGDON        FAIR      72  43  35 VRB6G13   30.19F
ROLLA            N/A     66  41  39 VRB6G14   30.19F
$$

CITY           SKY/WX    TMP DP  RH WIND       PRES   REMARKS
ABERDEEN       SUNNY     70  37  29 NE8       30.22F
MOBRIDGE       SUNNY     72  39  30 S12G17    30.18F
BUFFALO          N/A     79  38  22 S12G21    30.09F
RAPID CITY     SUNNY     76  38  25 SE13G22   30.18F
SIDNEY         SUNNY     80  39  23 S5        30.07F
WOLF POINT     SUNNY     84  40  21 SE8       30.02F
GLENDIVE       SUNNY     83  37  19 S12G18    30.07F
MILES CITY     PTSUNNY   85  31  14 S13G20    30.04F
BAKER          SUNNY     79  33  19 S8        30.12F
$$

CITY           SKY/WX    TMP DP  RH WIND       PRES   REMARKS
BILLINGS       MOSUNNY   87  39  18 SE9G18    30.01F
GREAT FALLS    SUNNY     90  45  21 VRB6      29.88F
$$





USA.gov is the U.S. government's official web portal to all federal, state and local government web resources and services.